Погода в Балере

Филиппины     15°45′33″N   121°33′45″E
темп.,
°C
ветер,
м/с
пор.,
м/с
влажн.,
%
обл.,
%
осадки,
мм/ч
давл.,
гПа
погр.,
м
7 марта, вс
вс723:00+21зсз119474 0.0 101736
02:00+20з119854 0.0 101430
05:00+20зсз119653 0.1 101544
08:00+23св148758 0.3 1016431
11:00+26всв356642 0.3 10161168
14:00+27всв346334 0.3 10131087
17:00+24всв347763 0.0 1013895
20:00+22всв269076 0.1 1015264
8 марта, пн
пн823:00+22всв269471 0.4 1016336
02:00+20св129662 0.8 101463
05:00+20ююз019679 0.1 101544
08:00+22юз019070 0.1 1017255
11:00+28в235431 0.0 1016886
14:00+27всв446322 0.0 1014977
17:00+24всв368437 0.1 1014788
20:00+22всв389568 0.9 1015587
9 марта, вт
вт923:00+22в389596 0.8 1016533
02:00+21в269692 1.4 1015246
05:00+19ююз019630 0.3 101538
08:00+22юв018816 0.3 1017199
11:00+27в36560 0.0 10171106
14:00+27всв46630 0.0 10131120
17:00+24всв36742 0.0 10141012
20:00+22всв499443 0.6 1016652
10 марта, ср
ср1023:00+21всв399588 1.0 1017534
02:00+21в289658 1.8 1015383
05:00+19в019613 0.4 101553
08:00+22ююв01918 0.4 1017194
11:00+26в45600 0.0 10161111
14:00+25всв577318 0.2 1014989
17:00+23в388396 0.3 1014785
20:00+22в4108684 0.9 1016616
11 марта, чт
чт1123:00+21всв399086 0.3 1017665
02:00+20всв139578 0.9 1015135
05:00+19юз0197100 0.4 101544
08:00+22юв019069 0.4 1017247
11:00+27в466414 0.1 10151085
14:00+26всв587610 0.8 1012973
17:00+23всв499144 1.3 1012846
20:00+22всв499566 2.6 1014680